Manhattan, KS

9:04 AM CDT on April 23, 2018 (GMT -0500)
Manhattan Regional

Weather History for KMHK - October, 2011

Change the Weather History Date:

Monday, October 3, 2011

  Actual Average Record
Temperature  
Mean Temperature 68 °F 60 °F  
Max Temperature 87 °F 73 °F 96 °F (2006)
Min Temperature 48 °F 47 °F 33 °F (1999)
Degree Days  
Heating Degree Days 0 7  
Month to date heating degree days 19  
Since 1 July heating degree days 89  
Cooling Degree Days 2 2  
Month to date cooling degree days 6  
Year to date cooling degree days 1343  
Growing Degree Days 18 (Base 50)    
Moisture  
Dew Point 42 °F    
Average Humidity 43    
Maximum Humidity 77    
Minimum Humidity 21    
Precipitation  
Precipitation 0.00 in 0.08 in 0.97 in (2013)
Month to date precipitation 0.26  
Year to date precipitation 27.97  
Sea Level Pressure  
Sea Level Pressure 30.11 in    
Wind  
Wind Speed 4 mph (SSE)    
Max Wind Speed 17 mph    
Max Gust Speed 25 mph    
Visibility 10 miles    
Events      
T = Trace of Precipitation, MM = Missing Value Source: NWS Daily Summary

Daily Weather History Graph

Daily Weather History Graph

Search for Another Location

Airport or City:

Astronomy

Oct. 03, 2011 Rise Set
Actual Time 7:24 AM CDT 7:06 PM CDT
Civil Twilight 6:57 AM CDT 7:33 PM CDT
Nautical Twilight 6:26 AM CDT 8:04 PM CDT
Astronomical Twilight 5:55 AM CDT 8:35 PM CDT
Moon 2:20 PM CDT (10/3) No Moon Set
Length of Visible Light 12h 35m
Length of Day
11h 42m
Waxing Crescent, 45% of the Moon is Illuminated
Oct 3
Waxing Crescent
Oct 3
First Quarter
Oct 11
Full
Oct 19
Last Quarter
Oct 26
New

Hourly Weather History & Observations

Time (CDT) Temp. Dew Point Humidity Pressure Visibility Wind Dir Wind Speed Gust Speed Precip Events Conditions
12:52 AM 55.0 °F 39.0 °F 55% 30.14 in 10.0 mi Calm Calm - N/A   Clear
1:52 AM 53.1 °F 39.0 °F 59% 30.15 in 10.0 mi Calm Calm - N/A   Clear
2:52 AM 50.0 °F 39.0 °F 66% 30.15 in 10.0 mi Calm Calm - N/A   Clear
3:52 AM 50.0 °F 39.9 °F 68% 30.14 in 10.0 mi Calm Calm - N/A   Clear
4:52 AM 51.1 °F 39.9 °F 66% 30.14 in 10.0 mi Calm Calm - N/A   Clear
5:52 AM 52.0 °F 41.0 °F 66% 30.15 in 10.0 mi Calm Calm - N/A   Clear
6:52 AM 48.0 °F 41.0 °F 77% 30.15 in 10.0 mi Calm Calm - N/A   Clear
7:52 AM 48.9 °F 41.0 °F 74% 30.16 in 10.0 mi Calm Calm - N/A   Clear
8:52 AM 60.1 °F 45.0 °F 57% 30.15 in 10.0 mi Calm Calm - N/A   Clear
9:52 AM 70.0 °F 39.9 °F 33% 30.15 in 10.0 mi South 6.9 mph - N/A   Clear
10:52 AM 73.0 °F 42.1 °F 33% 30.14 in 10.0 mi South 9.2 mph - N/A   Clear
11:52 AM 77.0 °F 42.1 °F 29% 30.13 in 10.0 mi SSW 8.1 mph - N/A   Clear
12:52 PM 81.0 °F 42.1 °F 25% 30.12 in 10.0 mi SSE 10.4 mph - N/A   Clear
1:52 PM 84.9 °F 42.1 °F 22% 30.09 in 10.0 mi SSE 9.2 mph 20.7 mph N/A   Clear
2:52 PM 87.1 °F 42.1 °F 21% 30.07 in 10.0 mi South 17.3 mph 21.9 mph N/A   Clear
3:52 PM 87.1 °F 42.1 °F 21% 30.06 in 10.0 mi South 16.1 mph 24.2 mph N/A   Clear
4:52 PM 86.0 °F 42.1 °F 21% 30.05 in 10.0 mi SSE 15.0 mph 25.3 mph N/A   Clear
5:52 PM 84.0 °F 42.1 °F 23% 30.06 in 10.0 mi SSE 13.8 mph - N/A   Clear
6:52 PM 80.1 °F 42.1 °F 26% 30.06 in 10.0 mi SSE 11.5 mph - N/A   Clear
7:52 PM 75.0 °F 43.0 °F 32% 30.07 in 10.0 mi SE 8.1 mph - N/A   Clear
8:52 PM 71.6 °F 42.8 °F 35% 30.09 in 10.0 mi SE 9.2 mph - N/A   Clear
9:52 PM 71.1 °F 43.0 °F 36% 30.09 in 10.0 mi SSE 4.6 mph - N/A   Clear
10:52 PM 69.1 °F 43.0 °F 39% 30.09 in 10.0 mi South 5.8 mph - N/A   Clear
11:52 PM 66.0 °F 43.0 °F 43% 30.10 in 10.0 mi Calm Calm - N/A   Clear